TimeEST,TemperatureF,Dew PointF,Humidity,Sea Level PressureIn,VisibilityMPH,Wind Direction,Wind SpeedMPH,Gust SpeedMPH,PrecipitationIn,Events,Conditions,WindDirDegrees,DateUTC
12:15 AM,26.6,15.8,64,29.95,10.0,NW,10.4,-,N/A,,Overcast,310,2013-03-03 05:15:00
12:35 AM,26.6,15.4,63,29.95,10.0,NW,4.6,-,N/A,,Overcast,320,2013-03-03 05:35:00
12:55 AM,26.4,15.1,62,29.94,10.0,WNW,9.2,-,N/A,,Overcast,290,2013-03-03 05:55:00
1:15 AM,26.6,15.1,62,29.95,10.0,WNW,8.1,-,N/A,,Overcast,300,2013-03-03 06:15:00
1:35 AM,26.2,14.7,62,29.95,10.0,WNW,6.9,-,N/A,,Mostly Cloudy,300,2013-03-03 06:35:00
1:55 AM,26.1,14.5,62,29.95,10.0,WNW,6.9,-,N/A,,Overcast,290,2013-03-03 06:55:00
2:15 AM,26.2,14.7,62,29.94,10.0,WNW,6.9,-,N/A,,Overcast,290,2013-03-03 07:15:00
2:35 AM,26.2,14.0,60,29.94,10.0,WNW,6.9,16.1,N/A,Snow,Light Snow,290,2013-03-03 07:35:00
2:55 AM,25.9,14.0,61,29.94,10.0,WNW,6.9,-,N/A,,Overcast,300,2013-03-03 07:55:00
3:15 AM,25.7,13.1,59,29.94,10.0,NNW,8.1,-,N/A,,Overcast,330,2013-03-03 08:15:00
3:35 AM,25.7,13.5,60,29.93,10.0,WNW,5.8,-,N/A,,Overcast,300,2013-03-03 08:35:00
3:55 AM,25.7,13.8,61,29.93,10.0,NW,8.1,-,N/A,Snow,Light Snow,320,2013-03-03 08:55:00
4:15 AM,25.7,13.1,59,29.93,10.0,West,8.1,-,N/A,,Overcast,280,2013-03-03 09:15:00
4:35 AM,25.5,12.9,59,29.93,10.0,WNW,6.9,-,N/A,,Overcast,300,2013-03-03 09:35:00
4:55 AM,25.2,13.5,61,29.93,10.0,WNW,4.6,18.4,N/A,,Overcast,300,2013-03-03 09:55:00
5:35 AM,24.8,14.5,65,29.93,10.0,WNW,4.6,-,N/A,,Mostly Cloudy,290,2013-03-03 10:35:00
5:55 AM,24.8,15.3,67,29.93,7.0,NNW,4.6,-,N/A,Snow,Light Snow,330,2013-03-03 10:55:00
6:15 AM,24.8,15.8,69,29.94,10.0,WNW,5.8,-,N/A,Snow,Light Snow,300,2013-03-03 11:15:00
6:35 AM,24.8,15.8,69,29.94,10.0,NNW,6.9,16.1,N/A,Snow,Light Snow,330,2013-03-03 11:35:00
6:55 AM,24.4,15.4,69,29.94,10.0,WNW,4.6,-,N/A,,Overcast,300,2013-03-03 11:55:00
7:15 AM,23.9,15.4,70,29.94,10.0,West,6.9,-,N/A,,Mostly Cloudy,280,2013-03-03 12:15:00
7:35 AM,23.5,14.7,69,29.95,10.0,WNW,4.6,-,N/A,,Clear,300,2013-03-03 12:35:00
7:55 AM,23.5,12.9,64,29.96,10.0,WNW,4.6,-,N/A,,Scattered Clouds,300,2013-03-03 12:55:00
8:15 AM,23.5,12.2,62,29.96,10.0,North,3.5,-,N/A,,Clear,360,2013-03-03 13:15:00
8:35 AM,23.9,10.8,57,29.96,10.0,NW,6.9,-,N/A,,Scattered Clouds,310,2013-03-03 13:35:00
8:55 AM,24.8,10.8,55,29.96,10.0,North,6.9,-,N/A,,Clear,360,2013-03-03 13:55:00
9:15 AM,26.4,10.2,51,29.97,10.0,NW,9.2,-,N/A,,Clear,320,2013-03-03 14:15:00
9:35 AM,27.3,10.6,49,29.96,10.0,NNW,9.2,17.3,N/A,,Clear,340,2013-03-03 14:35:00
9:55 AM,28.0,10.4,48,29.96,10.0,NW,12.7,17.3,N/A,,Clear,320,2013-03-03 14:55:00
10:15 AM,28.8,10.4,46,29.96,10.0,NW,8.1,-,N/A,,Clear,320,2013-03-03 15:15:00
10:35 AM,29.8,10.9,45,29.96,10.0,NW,12.7,17.3,N/A,,Clear,320,2013-03-03 15:35:00
10:55 AM,30.0,10.4,44,29.95,10.0,North,11.5,18.4,N/A,,Clear,10,2013-03-03 15:55:00
11:15 AM,31.1,11.1,43,29.95,10.0,NW,11.5,16.1,N/A,,Clear,320,2013-03-03 16:15:00
11:35 AM,31.3,10.4,42,29.95,10.0,NW,11.5,19.6,N/A,,Clear,310,2013-03-03 16:35:00
11:55 AM,32.2,11.5,42,29.95,10.0,NW,9.2,18.4,N/A,,Clear,310,2013-03-03 16:55:00
12:15 PM,32.2,11.7,43,29.94,10.0,NW,11.5,-,N/A,,Clear,310,2013-03-03 17:15:00
12:35 PM,32.2,11.3,42,29.94,10.0,NNW,11.5,17.3,N/A,,Clear,330,2013-03-03 17:35:00
12:55 PM,33.1,11.3,40,29.94,10.0,NW,15.0,18.4,N/A,,Clear,320,2013-03-03 17:55:00
1:15 PM,33.8,12.6,42,29.93,10.0,North,9.2,-,N/A,,Clear,360,2013-03-03 18:15:00
1:35 PM,33.8,11.5,40,29.93,10.0,NNW,11.5,19.6,N/A,,Clear,340,2013-03-03 18:35:00
1:55 PM,33.8,11.1,39,29.93,10.0,NNW,12.7,19.6,N/A,,Clear,340,2013-03-03 18:55:00
2:15 PM,34.5,12.2,40,29.92,10.0,NW,9.2,18.4,N/A,,Clear,320,2013-03-03 19:15:00
2:55 PM,33.3,11.3,40,29.93,10.0,NNW,15.0,24.2,N/A,,Clear,340,2013-03-03 19:55:00
3:15 PM,33.3,11.8,41,29.94,10.0,NNW,13.8,23.0,N/A,,Clear,330,2013-03-03 20:15:00
3:35 PM,32.7,11.7,42,29.94,10.0,NW,11.5,19.6,N/A,,Clear,310,2013-03-03 20:35:00
3:55 PM,33.8,12.7,42,29.94,10.0,WNW,10.4,19.6,N/A,,Clear,300,2013-03-03 20:55:00
4:55 PM,32.0,10.8,41,29.96,10.0,NW,11.5,20.7,N/A,,Clear,310,2013-03-03 21:55:00
5:15 PM,32.0,11.3,42,29.96,10.0,NW,6.9,-,N/A,,Clear,310,2013-03-03 22:15:00
5:35 PM,31.1,11.8,45,29.97,10.0,NW,11.5,17.3,N/A,,Clear,310,2013-03-03 22:35:00
5:55 PM,30.2,12.4,48,29.97,10.0,NW,11.5,17.3,N/A,,Clear,320,2013-03-03 22:55:00
6:15 PM,29.3,13.1,51,29.98,10.0,NNW,10.4,16.1,N/A,,Clear,330,2013-03-03 23:15:00
6:35 PM,28.8,13.1,52,29.99,10.0,NW,6.9,16.1,N/A,,Clear,310,2013-03-03 23:35:00
6:55 PM,28.8,13.5,53,29.99,10.0,NW,11.5,16.1,N/A,,Clear,310,2013-03-03 23:55:00
7:15 PM,28.4,13.3,53,30.00,10.0,WNW,11.5,17.3,N/A,,Clear,300,2013-03-04 00:15:00
7:35 PM,28.2,13.3,54,30.00,10.0,WNW,5.8,18.4,N/A,,Clear,300,2013-03-04 00:35:00
7:55 PM,28.2,13.1,53,30.00,10.0,WNW,8.1,-,N/A,,Clear,300,2013-03-04 00:55:00
8:15 PM,28.0,13.1,54,30.00,10.0,NW,3.5,-,N/A,,Clear,310,2013-03-04 01:15:00
8:35 PM,27.5,13.3,55,30.01,10.0,WNW,6.9,-,N/A,,Clear,300,2013-03-04 01:35:00
8:55 PM,27.5,13.5,56,30.01,10.0,NW,10.4,17.3,N/A,,Clear,320,2013-03-04 01:55:00
9:15 PM,27.0,13.5,57,30.01,10.0,NW,8.1,-,N/A,,Clear,310,2013-03-04 02:15:00
9:35 PM,26.8,13.5,57,30.01,10.0,NW,4.6,-,N/A,,Clear,310,2013-03-04 02:35:00
9:55 PM,26.6,13.1,57,30.01,10.0,WNW,3.5,-,N/A,,Clear,300,2013-03-04 02:55:00
10:15 PM,25.9,13.1,58,30.01,10.0,NW,3.5,-,N/A,,Clear,320,2013-03-04 03:15:00
10:35 PM,25.7,13.1,59,30.01,10.0,NW,4.6,-,N/A,,Clear,310,2013-03-04 03:35:00
10:55 PM,25.7,13.1,59,30.01,10.0,NNW,4.6,-,N/A,,Clear,340,2013-03-04 03:55:00
11:15 PM,26.2,13.1,58,30.01,10.0,North,4.6,-,N/A,,Clear,10,2013-03-04 04:15:00
11:35 PM,26.2,12.9,57,30.00,10.0,North,4.6,-,N/A,,Clear,350,2013-03-04 04:35:00
11:55 PM,26.2,12.9,57,30.00,10.0,NNW,5.8,-,N/A,,Clear,340,2013-03-04 04:55:00